Regional Weather Roundup
Issued by NWS New Orleans/Baton Rouge, LA

Home | Current Version | Previous Version | Text Only | Print | Product List | Glossary On
Versions: 1 2 3 4 5 6 7 8 9 10 11 12 13 14 15 16 17 18 19 20 21 22 23 24 25 26 27 28 29 30 31 32 33 34 35 36 37 38 39 40 41 42 43 44 45 46 47 48 49 50
565
ASUS44 KLIX 200813
RWRLIX
NEW ORLEANS REGIONAL WEATHER ROUNDUP
NATIONAL WEATHER SERVICE NEW ORLEANS LA
200 AM CST FRI JAN 20 2017

NOTE: "FAIR" INDICATES FEW OR NO CLOUDS BELOW 12,000 FEET WITH NO
      SIGNIFICANT WEATHER AND/OR OBSTRUCTIONS TO VISIBILITY.
      SKY/WX - SKY CONDITION AND SIGNIFICANT WEATHER.
      TMP - AIR TEMPERATURE.     DP    - DEWPOINT TEMPERATURE.
      RH  - RELATIVE HUMIDITY.   PRES  - PRESSURE.
      HI  - HEAT INDEX.          WCI   - WIND CHILL INDEX.

*  THESE STATIONS ARE NOT NWS OR FAA STATIONS AND ARE NOT UNDER
   NWS QUALITY CONTROL.

LAZ038-040-048-061>063-065>067-069-200900-
SOUTHEAST LOUISIANA

CITY           SKY/WX    TMP DP  RH WIND       PRES   REMARKS
N.O. AUDUBON   NOT AVBL
N.O. INTL ARPT PTCLDY    64  62  93 S7        29.81F
N.O. LAKEFRONT CLEAR     64  63  96 S10       29.82F
N.O. DOWNTOWN* NOT AVBL
RESERVE*       PTSUNNY   64  62  94 CALM      29.81S
SLIDELL        PTCLDY    62  61  96 S5        29.81F
BATON ROUGE    CLOUDY    62  62 100 S6        29.80S FOG
BOOTHVILLE     CLEAR     64  63  96 S7        29.85F
BELLE CHASSE   PTCLDY    65  63  93 S6        29.82F
BOGALUSA*      PTSUNNY   63  60  90 CALM      29.84S
GALLIANO*      PTSUNNY   67  63  87 S6        29.83S
NEW ROADS*     CLOUDY    61  61 100 S8        29.79S FOG
GONZALES*      PTSUNNY   61  61 100 CALM      29.80S FOG
HAMMOND*       CLOUDY    61  59  94 S3        29.82S
HOUMA*         MOCLDY    64  63  98 CALM      29.81F
PORT FOURCHON* MOSUNNY   68  66  94 S6        29.83S

$$

MSZ070-080>082-200900-
SOUTHERN MISSISSIPPI

CITY           SKY/WX    TMP DP  RH WIND       PRES   REMARKS
MCCOMB         CLOUDY    61  59  93 S8        29.79F FOG
GULFPORT       PTCLDY    66  64  93 S3        29.82F
BILOXI         PTCLDY    64 N/A N/A SW10      29.82F
PASCAGOULA     PTCLDY    64  62  93 CALM      29.84S

$$

COASTAL OBSERVATIONS
LAKE AND NEARSHORE STATIONS

STATION/POSITION TIME  TEMP    WIND        PRES    WAVE
                       AIR SEA DIR/SP/G            HT/PER
                 (UTC) (F)     (DEG/KT/KT) (MB)    (FT/S)
PASCAGOULA       0748   66     210/  9/ 12 1010.0
WAVELAND YACHT   0748   66 66  200/  8/ 11 1010.0
GRAND ISLE       0748   67 67  180/  5/  7 1010.2
SOUTHWEST PASS   0742          170/ 10/ 10   N/A
NEW CANAL        0742   64 58  180/  4/  5 1008.8
SHELL BEACH      0742   66 67  180/  7/ 10 1010.2

OFFSHORE STATIONS

STATION/POSITION TIME  TEMP    WIND        PRES    WAVE
                       AIR SEA DIR/SP/G            HT/PER
                 (UTC) (F)     (DEG/KT/KT) (MB)    (FT/S)

$$





USA.gov is the U.S. government's official web portal to all federal, state and local government web resources and services.